GFSCGP_sfc_wetblb_180.txt.gz
Wetbulb
46.77 40.88 37.90 40.62 41.46 42.52 42.40 40.22 39.14 42.62 46.34 43.24 42.80 42.68 43.94 48.25 47.78 46.72 45.31 45.03 44.92 44.32 43.03 44.05 43.98 43.99 43.37 43.10 43.22 43.41 43.06 42.82 42.31 41.31 41.04 40.78 40.50 40.79 41.37 42.26 43.61 42.88 42.96 43.15
43.01 39.61 45.05 45.49 44.49 42.90 42.10 40.30 39.83 43.19 46.23 44.20 42.26 41.24 43.19 46.46 46.98 46.71 45.78 45.27 44.51 42.75 42.58 43.14 42.95 42.98 43.38 42.61 42.55 41.77 41.14 41.34 40.99 40.83 40.22 40.76 40.28 40.48 41.53 41.05 42.05 42.79 43.04 42.62
41.14 44.45 48.27 45.80 44.07 42.74 42.27 39.67 39.48 39.95 43.46 42.63 40.79 38.74 40.27 45.13 46.79 47.74 47.65 47.53 45.84 43.91 41.91 42.10 42.38 42.16 41.56 41.40 40.92 40.88 40.53 40.83 41.22 41.01 40.32 40.13 39.97 39.24 38.92 39.36 39.81 41.12 41.53 41.40
45.05 49.13 47.05 45.70 43.94 44.22 39.18 43.65 43.44 41.51 38.54 33.67 39.56 30.21 38.54 42.34 43.94 45.68 46.52 46.12 44.64 43.74 43.28 42.68 42.49 41.23 41.19 41.18 40.83 40.75 41.02 40.91 41.36 40.42 39.18 38.46 37.24 37.19 37.85 37.79 38.58 39.82 40.63 40.52
42.77 44.39 44.84 43.69 44.39 46.45 42.70 45.94 43.14 42.22 37.67 32.83 35.58 31.48 35.42 40.15 41.43 43.52 45.30 45.93 44.95 44.58 43.46 42.16 42.33 41.99 42.23 40.98 40.89 41.12 40.70 40.63 40.11 39.53 38.84 37.55 36.84 37.41 37.59 37.57 37.35 38.29 38.62 39.52
44.86 48.70 46.56 45.16 46.93 46.39 46.05 42.55 41.51 38.94 35.35 31.62 34.94 33.88 34.17 38.60 41.68 44.02 46.55 46.70 45.83 44.94 43.48 42.91 42.91 42.60 41.37 40.76 40.43 40.27 40.85 40.62 40.63 39.66 38.67 37.46 36.67 35.78 35.45 35.51 35.81 37.19 37.74 37.62
41.54 42.48 46.03 47.50 43.10 46.02 44.53 37.90 30.72 28.07 27.21 29.17 37.65 36.03 37.77 40.61 44.05 46.27 45.81 47.16 46.42 45.17 42.73 41.91 41.17 41.45 40.77 40.17 40.46 41.16 41.42 40.26 39.85 38.88 38.03 37.00 35.96 36.24 35.90 35.86 35.73 35.80 35.74 35.28
35.12 33.05 41.07 45.37 43.01 41.35 41.46 40.34 31.17 24.93 26.59 29.51 37.44 31.41 35.92 42.71 43.89 44.34 46.38 48.44 46.69 44.20 42.89 41.91 41.87 41.49 41.06 41.04 40.97 41.46 40.79 39.28 39.00 38.45 37.71 37.16 36.81 36.27 36.50 36.36 35.82 35.42 34.96 34.73
35.78 35.53 43.87 45.63 45.64 44.51 40.31 37.02 40.89 34.91 33.46 28.73 31.20 35.57 41.14 41.30 41.34 42.06 44.28 46.47 44.13 42.31 42.30 41.98 42.32 41.56 41.46 41.00 40.93 40.18 40.18 39.68 39.28 38.65 37.05 36.57 36.75 36.71 36.06 35.76 35.44 34.51 34.70 35.89
39.52 33.19 41.17 43.37 45.19 44.43 41.74 42.65 34.77 34.85 27.56 25.75 30.97 30.80 34.30 37.32 39.33 40.28 40.86 42.16 42.41 42.83 42.63 42.37 42.16 41.51 41.70 41.58 40.61 40.26 40.26 39.45 39.00 37.73 37.14 37.05 36.67 36.36 36.01 35.52 34.47 34.21 34.30 33.96
40.35 36.73 34.74 39.57 38.26 35.86 36.78 35.28 38.04 38.43 35.92 28.86 27.02 31.31 38.18 40.69 43.35 40.48 41.45 43.02 42.58 42.29 42.24 41.97 41.05 41.55 41.47 41.60 39.33 39.73 39.00 38.72 37.73 37.29 36.95 36.37 35.95 35.79 35.68 35.25 34.34 33.88 33.71 33.67
40.58 36.83 31.08 32.95 40.14 43.84 41.60 37.98 35.86 29.59 30.47 30.61 30.67 33.10 40.08 39.37 40.33 41.17 42.98 44.15 43.87 43.24 42.55 41.49 40.77 40.82 40.82 40.21 39.17 39.19 38.83 38.26 37.29 37.18 36.74 36.05 35.94 35.32 34.35 34.26 33.89 34.07 33.03 33.57
39.24 33.63 26.89 28.52 34.44 38.93 35.89 37.23 36.88 35.55 31.73 28.70 28.54 29.20 40.48 40.74 40.83 42.36 41.47 43.03 44.09 43.38 42.74 40.86 40.63 40.38 40.05 39.33 39.05 38.73 38.24 37.32 37.28 37.27 36.28 35.81 34.80 33.87 33.08 33.39 33.53 33.78 32.97 32.33
40.67 35.04 31.98 26.68 28.93 33.89 31.51 34.65 35.25 33.78 29.93 30.82 30.57 31.58 37.14 39.67 39.33 40.50 42.17 43.45 43.95 43.46 42.30 41.05 40.58 39.88 39.45 39.19 38.13 38.00 37.14 37.09 37.11 36.36 35.62 34.38 33.31 33.32 33.07 33.33 32.65 33.18 32.71 31.98
37.09 30.33 31.91 33.11 34.48 34.29 34.56 34.43 34.98 32.71 33.13 29.95 32.19 32.92 35.39 38.20 39.97 42.11 43.70 43.71 44.94 43.83 42.57 40.97 39.69 38.84 38.89 38.37 37.86 37.72 36.97 36.83 36.58 35.51 35.06 33.76 33.45 33.89 33.70 33.03 32.53 32.69 32.01 31.35
37.34 28.78 31.32 27.27 32.89 34.44 32.03 33.92 34.21 34.48 35.25 33.73 33.83 33.00 38.89 40.21 41.38 41.97 42.81 43.57 43.82 43.81 42.20 41.45 40.08 38.99 38.34 38.23 36.91 36.96 36.18 35.56 35.75 35.04 34.61 34.58 34.47 33.33 32.73 31.97 31.39 30.59 29.97 29.26
29.73 28.89 28.34 23.84 29.94 29.72 25.55 30.05 32.14 33.90 36.57 35.46 30.46 34.94 39.47 39.01 40.17 41.41 43.33 44.11 43.61 44.31 43.11 41.73 40.00 38.99 38.74 37.82 37.50 36.26 36.10 35.60 35.22 34.53 34.65 34.56 33.64 32.46 31.44 31.03 29.72 28.44 26.76 26.75
28.15 28.28 28.63 24.38 26.89 18.27 29.52 36.46 36.45 34.93 36.56 38.28 37.75 38.49 40.06 40.57 42.59 43.47 44.92 42.63 43.20 45.02 44.38 42.32 40.09 39.21 38.42 38.15 37.77 37.18 36.16 35.03 34.52 33.91 33.76 33.36 32.35 30.84 30.27 29.10 27.57 26.53 25.76 24.76
32.80 29.11 24.15 22.75 22.84 26.52 29.17 32.84 32.80 33.00 33.48 38.99 38.40 40.00 41.25 42.43 40.87 39.71 42.77 43.03 44.69 45.97 46.31 42.41 40.53 38.79 38.04 37.82 36.94 35.27 34.50 34.29 33.56 32.63 32.23 31.67 31.00 29.16 28.02 26.35 25.53 24.94 24.17 23.77
33.74 34.01 28.61 23.97 20.70 16.65 26.80 33.86 38.64 37.81 26.99 36.86 37.73 38.64 38.64 39.17 31.87 36.17 40.96 43.10 42.77 43.52 45.14 40.69 39.58 38.43 37.19 35.75 35.38 34.17 33.04 32.07 31.61 30.83 30.47 30.68 29.49 27.87 25.81 25.20 24.22 23.60 23.72 24.16
25.49 25.67 23.49 25.10 22.99 25.53 33.44 36.63 39.21 25.46 26.40 36.99 39.03 38.49 37.45 36.14 37.97 39.00 41.09 40.54 40.16 40.81 40.44 39.99 38.59 36.78 35.23 35.08 35.26 33.12 32.02 30.58 30.89 30.43 29.92 28.50 27.41 25.90 25.08 23.97 23.30 22.33 22.07 21.78
23.13 22.57 22.51 20.82 19.56 18.33 37.07 37.32 30.17 35.21 39.95 39.41 39.03 39.19 38.21 38.06 37.42 37.05 37.31 37.10 37.57 37.31 37.13 36.52 35.38 34.81 34.53 34.74 33.78 31.22 29.64 30.12 30.03 28.81 27.06 25.71 25.77 25.87 24.61 22.70 21.75 21.68 20.47 19.68
23.83 26.64 24.47 24.87 23.32 32.92 36.47 36.85 39.83 41.51 39.83 40.26 39.77 39.60 38.87 34.80 34.60 34.25 33.01 33.92 33.88 32.99 32.80 33.92 32.98 32.08 32.81 32.83 31.81 28.64 28.55 29.02 27.81 26.37 24.91 24.56 24.63 24.73 23.98 22.21 20.91 20.02 19.12 18.35
29.69 34.31 27.25 27.87 30.44 32.84 35.57 37.91 40.39 41.14 40.60 41.33 41.61 40.45 38.55 34.77 33.22 32.24 32.30 31.74 30.89 31.36 31.45 31.99 31.00 30.07 29.23 29.96 29.89 28.82 27.74 27.31 24.98 23.27 22.50 23.88 21.23 22.85 23.41 22.92 21.98 15.67 11.03 9.73
26.98 31.27 28.27 27.08 30.92 34.03 35.51 37.01 37.97 39.80 40.88 40.86 40.97 39.28 36.80 33.95 32.17 31.88 31.33 30.57 29.92 30.30 31.03 31.39 30.54 29.11 27.65 28.34 27.80 27.41 26.46 25.60 23.47 21.85 20.14 17.52 15.15 13.38 15.37 17.83 16.34 15.97 8.56 12.69
30.36 29.14 23.63 22.21 29.85 30.94 32.73 36.81 39.68 39.19 39.17 40.04 39.25 36.35 35.38 34.59 32.04 31.86 30.60 30.05 29.38 29.37 29.17 27.02 26.12 26.07 26.20 26.91 26.04 25.57 25.67 24.55 23.47 22.24 19.16 16.91 12.74 3.95 4.12 14.20 11.30 22.03 19.88 19.71

GFSCGP_sfc_wetblb_183.txt.gz
Wetbulb
44.53 39.04 37.17 40.12 39.84 41.07 40.38 38.45 37.90 41.99 45.46 41.04 41.88 40.81 42.87 47.89 47.94 47.59 46.03 44.72 44.52 45.06 44.94 44.34 44.29 44.05 43.80 43.85 43.71 44.27 43.36 42.75 43.83 42.53 41.23 39.85 39.57 40.12 40.24 41.54 42.23 41.88 41.43 40.96
40.92 37.61 44.39 44.14 42.37 40.80 40.02 38.62 38.51 42.30 45.08 41.73 40.69 39.45 42.13 44.87 47.21 48.75 47.50 45.14 44.64 44.25 41.89 42.96 42.99 42.86 43.26 42.79 43.57 42.64 42.48 41.87 42.13 41.01 39.45 39.84 39.57 39.46 39.71 40.63 41.28 41.77 41.04 40.41
40.45 43.52 46.75 43.84 42.53 40.94 40.65 38.71 39.24 38.73 43.15 41.07 39.38 37.11 39.31 42.97 45.18 48.78 48.71 47.86 46.43 43.29 41.47 42.03 42.28 42.36 42.81 42.00 41.53 41.18 40.66 40.76 40.57 40.45 39.96 38.95 38.70 38.50 37.80 38.16 38.88 39.48 40.27 39.29
44.10 48.17 45.65 44.01 42.42 42.89 38.70 43.81 42.14 40.15 38.08 34.45 38.70 32.59 38.70 40.44 42.05 44.87 46.49 46.27 45.64 43.58 43.13 42.59 42.33 41.74 41.38 41.66 41.00 39.93 40.44 40.01 40.12 40.19 39.81 39.47 36.69 35.74 36.28 36.95 38.05 38.87 38.96 38.17
42.74 43.46 43.86 42.50 43.92 45.87 41.31 45.55 42.75 41.75 37.70 34.28 35.76 30.59 35.00 39.06 38.58 41.37 44.45 45.70 45.52 44.11 42.80 42.04 42.15 42.50 42.14 41.16 39.88 39.31 39.74 40.15 39.56 39.32 39.79 37.17 36.36 36.58 37.16 37.23 37.17 37.36 37.12 37.27
44.20 47.73 45.35 43.59 45.74 45.42 45.26 42.02 42.03 38.17 35.43 30.69 35.74 32.76 35.18 37.91 39.79 41.14 44.88 45.74 45.57 44.22 43.44 42.81 43.00 42.56 41.44 40.55 39.12 39.21 39.61 39.20 39.07 38.57 38.15 38.55 38.06 36.83 36.28 36.08 35.82 35.89 36.20 35.92
39.27 41.43 45.73 46.98 42.12 44.82 42.93 37.48 29.93 28.19 26.05 28.57 37.28 34.84 37.72 39.70 42.11 43.72 44.01 45.93 46.26 44.95 43.32 41.50 41.15 40.72 39.25 39.14 39.17 39.66 39.73 38.87 39.45 39.32 38.40 38.28 37.24 37.03 36.36 36.53 36.21 35.41 34.65 33.47
33.90 31.61 39.64 43.87 41.12 39.45 39.68 39.62 31.51 25.82 26.14 29.39 35.69 30.66 35.57 41.77 43.73 42.77 43.41 44.60 46.93 44.82 43.91 41.64 41.28 41.12 39.46 39.96 39.94 40.77 40.09 38.90 39.29 38.62 37.94 37.64 37.23 37.00 36.45 36.32 35.57 35.10 34.16 33.35
35.74 34.67 41.24 43.23 43.20 41.45 38.02 35.70 41.77 34.77 34.77 30.02 33.53 37.51 41.78 41.07 41.06 41.67 41.59 42.41 43.63 44.61 44.12 42.05 41.32 41.30 40.21 40.20 40.44 40.49 39.88 39.33 38.90 37.78 37.08 36.41 36.70 36.49 36.24 36.09 35.62 34.58 34.36 34.00
37.35 29.92 38.19 41.18 42.68 42.81 40.32 41.81 34.01 34.06 26.23 25.41 28.83 29.89 33.12 37.80 39.22 40.61 40.42 42.01 41.42 43.70 42.83 41.58 41.00 41.08 40.98 40.76 41.01 40.89 40.55 39.14 38.79 37.62 36.81 36.60 36.32 36.51 36.54 36.32 35.05 34.28 33.95 33.14
38.93 35.00 33.12 37.15 35.19 35.49 36.72 35.10 36.13 36.52 34.28 28.61 25.97 29.01 37.45 38.40 39.61 39.72 41.34 41.65 39.83 40.54 41.13 40.60 40.75 40.86 40.95 40.81 40.68 40.19 39.84 39.02 37.62 37.15 37.02 35.89 35.67 36.37 36.01 35.08 34.67 34.10 33.03 32.38
39.68 35.19 28.62 31.46 38.17 40.78 38.80 36.90 35.41 28.09 28.06 29.70 27.49 31.26 37.00 37.53 38.71 39.68 40.97 41.86 39.53 39.95 39.93 40.58 40.36 40.07 39.65 39.63 39.93 39.53 39.45 38.67 37.76 37.47 36.57 35.75 35.71 35.57 35.35 34.60 34.42 33.96 32.68 32.69
37.83 30.65 22.91 25.20 32.49 37.46 35.76 35.51 35.90 35.12 32.57 28.99 26.86 29.75 39.77 40.86 40.52 40.77 40.09 41.76 41.17 39.67 39.32 39.38 39.46 39.17 39.11 38.24 38.95 38.83 38.92 38.18 37.56 36.92 35.61 35.01 34.93 34.91 34.59 33.97 33.35 33.46 32.73 32.68
39.73 32.73 27.61 23.33 26.89 31.82 29.36 32.40 34.58 33.47 27.90 28.23 29.12 30.62 35.44 37.93 37.94 39.96 40.38 41.00 42.07 41.12 39.87 38.81 39.00 39.14 39.44 38.68 38.59 38.71 38.27 37.69 37.15 36.29 35.08 34.26 34.60 34.37 33.89 33.18 32.90 33.10 32.47 31.30
35.10 22.45 28.84 30.36 31.91 32.46 31.91 32.31 33.37 32.78 32.95 28.97 30.68 31.47 34.64 37.07 38.42 40.43 42.03 42.16 43.41 43.41 40.52 38.95 38.79 38.90 39.08 37.76 38.07 37.97 37.46 36.98 36.82 35.55 35.11 34.54 34.53 34.42 33.70 32.82 32.67 32.62 31.61 30.77
33.20 23.62 28.01 24.64 28.45 29.79 28.63 30.37 31.53 31.29 32.64 31.58 32.51 32.45 39.28 40.36 41.08 40.09 40.66 41.72 42.34 43.95 42.55 40.65 40.02 39.37 38.57 38.00 37.30 37.53 36.74 36.33 36.76 35.91 34.83 35.01 34.37 33.98 33.40 31.86 31.73 31.39 29.82 29.68
27.66 23.68 20.88 18.48 25.58 25.88 21.74 27.70 29.49 30.79 32.68 33.22 29.40 35.41 39.76 38.90 39.76 40.13 41.37 41.87 42.03 43.58 45.41 42.63 40.25 39.24 39.13 38.51 38.25 36.52 36.63 36.86 35.75 34.97 35.12 34.79 34.17 33.25 32.34 31.37 30.52 28.90 27.22 27.22
26.72 25.47 24.37 20.81 23.15 13.46 26.21 33.29 33.20 31.18 33.09 35.27 35.96 37.73 39.28 39.77 41.35 42.56 43.48 42.58 42.86 43.64 45.12 44.26 41.07 39.58 39.49 38.80 37.93 36.98 36.39 35.41 34.98 34.26 34.34 33.97 33.15 31.57 30.45 29.57 27.97 26.82 26.00 25.19
30.57 25.91 23.43 20.04 18.45 23.20 26.69 30.53 30.56 29.17 29.40 35.42 34.83 36.45 37.86 39.71 41.09 40.51 43.62 43.26 42.65 43.27 45.29 44.51 42.19 40.71 39.82 37.88 36.93 35.56 34.75 34.32 34.09 33.31 32.82 32.36 31.57 30.10 29.10 27.91 26.53 25.32 24.77 23.52
30.60 29.63 25.53 22.98 19.07 16.21 25.88 32.59 35.45 35.31 24.66 34.48 36.33 36.39 36.53 37.53 31.05 36.10 40.62 41.65 43.16 41.70 43.67 42.97 40.82 40.00 38.00 37.04 36.22 34.21 33.42 33.02 32.11 32.03 31.76 31.21 30.76 29.37 27.72 26.59 25.10 24.88 23.90 23.68
21.82 23.51 22.15 22.08 18.99 22.00 31.80 35.31 36.15 23.90 24.73 35.78 37.09 38.11 36.02 34.66 37.30 38.08 39.53 38.48 39.36 40.44 39.26 39.40 38.55 37.93 37.38 36.33 35.13 33.26 32.80 32.20 32.24 31.94 31.16 29.78 29.23 27.87 26.16 24.25 24.17 23.09 22.60 22.13
15.07 13.83 17.33 20.70 18.39 16.18 34.37 33.90 29.07 33.34 37.62 37.14 37.13 39.01 38.47 38.79 38.83 37.27 36.81 36.34 37.42 37.67 37.32 37.13 36.21 35.55 35.18 35.78 35.08 33.42 32.08 31.41 31.44 30.49 28.48 27.41 26.52 26.30 24.75 23.20 22.65 22.34 20.65 20.05
19.44 23.24 22.66 24.83 23.46 31.41 35.86 36.05 38.23 39.23 37.48 37.58 38.43 39.57 39.12 38.10 36.34 35.20 33.03 34.10 34.61 34.51 35.50 35.04 33.53 33.36 34.54 35.23 34.96 31.68 30.19 30.70 29.32 27.70 26.24 25.60 25.88 24.97 24.25 22.38 20.87 19.87 19.30 18.28
26.79 32.20 27.83 27.82 31.00 32.19 34.63 36.21 37.35 38.53 38.36 39.30 40.24 39.84 39.38 36.63 35.02 32.43 30.72 30.01 30.65 31.49 31.83 33.00 32.30 31.22 29.58 30.77 30.29 29.97 30.39 29.34 27.25 25.11 24.33 24.59 23.61 23.32 23.75 23.16 21.82 16.77 13.54 12.40
29.02 30.22 28.96 26.88 29.92 31.60 32.87 34.90 35.84 37.20 39.82 39.64 39.98 39.43 38.69 35.92 32.32 30.80 29.60 28.74 29.22 29.76 30.17 30.90 28.41 27.77 28.36 30.34 29.99 29.70 28.52 27.42 25.03 23.58 22.82 20.61 21.05 20.60 20.25 19.90 17.17 15.97 7.57 13.56
29.56 28.57 25.56 23.73 30.16 28.97 29.83 33.68 36.10 35.91 37.13 38.66 38.58 37.82 36.38 34.76 32.29 30.59 28.37 28.62 28.90 27.92 27.88 27.76 28.08 28.57 28.34 27.70 26.99 27.25 27.24 25.81 23.90 22.60 20.89 19.52 16.35 12.89 14.26 15.31 10.31 21.44 18.27 18.92

GFSCGP_sfc_wetblb_186.txt.gz
Wetbulb
42.89 38.45 36.18 38.11 39.19 39.72 38.25 36.66 35.61 39.97 44.40 39.89 39.60 39.40 41.83 43.47 48.41 47.41 47.97 46.60 47.24 48.29 49.95 46.31 44.93 44.94 44.22 43.66 44.28 44.79 44.22 43.64 43.90 42.78 41.29 39.95 38.61 39.27 39.81 40.48 41.16 40.27 40.08 39.84
39.76 36.33 43.16 42.56 40.92 39.18 38.09 35.93 36.11 39.76 43.67 40.56 39.10 38.18 41.54 42.26 45.87 48.44 48.00 46.90 47.12 47.34 43.50 43.45 43.49 43.50 43.59 43.70 44.44 43.99 44.53 43.36 43.92 43.22 39.19 39.52 38.91 38.44 39.35 40.10 40.08 39.84 39.21 38.87
38.96 41.48 45.93 42.83 40.24 38.75 38.40 36.15 36.93 37.03 41.82 39.38 37.92 36.77 38.24 41.10 44.08 47.52 49.60 49.41 47.93 46.07 42.48 42.55 42.50 42.43 42.93 43.23 43.42 43.57 43.79 43.72 42.67 41.49 39.41 39.18 38.22 37.96 37.55 37.90 37.83 38.26 38.45 38.41
41.78 44.89 43.57 42.33 40.12 40.57 36.02 42.02 41.26 39.18 36.39 32.02 37.48 31.48 38.67 39.10 40.80 42.83 46.47 48.01 46.91 45.69 44.81 43.03 42.48 41.80 42.48 43.29 44.01 43.89 42.90 42.79 41.20 40.52 39.65 39.28 37.27 37.02 36.58 37.00 37.38 37.20 37.43 36.86
41.97 43.53 43.77 42.01 42.76 45.09 40.48 44.14 40.77 39.33 35.89 33.51 35.29 29.51 35.05 39.03 37.71 40.42 43.94 46.04 46.96 46.19 44.86 43.10 42.64 42.84 43.11 42.85 41.44 41.12 41.25 41.70 41.13 40.19 40.79 38.75 37.40 36.25 37.17 37.59 36.45 35.86 36.04 36.30
43.22 46.28 44.96 43.89 45.23 44.71 44.74 40.84 39.50 37.38 34.05 30.21 35.40 33.73 35.01 38.46 39.46 39.87 42.09 44.76 46.36 46.42 45.16 44.92 43.76 43.17 42.08 41.46 40.36 39.54 39.69 40.21 40.00 40.02 39.23 38.77 37.07 36.71 36.66 36.23 35.56 35.41 35.37 34.67
38.27 39.51 43.63 45.41 41.08 44.35 42.38 36.98 29.47 27.43 25.06 28.34 36.05 33.70 37.15 40.30 42.62 43.58 44.27 42.73 45.22 46.18 44.47 43.13 41.60 41.50 41.15 39.51 39.09 39.61 40.05 38.85 39.20 39.02 38.73 38.27 37.98 37.69 36.77 36.24 35.58 35.08 33.87 33.13
33.54 30.88 38.34 42.67 41.37 39.26 39.52 38.76 30.82 23.80 24.80 28.23 34.01 28.65 33.90 39.25 40.57 41.21 43.04 42.56 43.75 43.56 44.44 42.76 42.26 42.06 41.53 40.61 39.21 40.10 39.78 38.80 38.58 38.73 38.18 38.04 38.34 37.48 37.57 37.13 36.31 35.07 33.70 33.07
34.43 33.83 39.62 41.52 41.44 41.19 38.21 35.52 41.43 34.33 33.83 29.70 31.10 35.07 40.51 42.75 42.37 41.12 40.55 41.60 41.46 42.72 43.75 43.19 42.05 41.80 41.32 40.11 39.34 40.15 40.20 39.68 38.97 38.37 37.37 37.07 37.51 36.79 37.23 37.01 36.33 34.87 33.87 33.89
35.43 27.88 36.48 39.51 40.27 41.70 40.26 40.97 33.10 34.63 27.06 24.41 27.33 28.44 30.63 33.85 35.48 38.78 39.16 40.57 41.89 41.63 42.42 41.82 41.32 40.89 40.67 40.51 40.40 40.42 40.73 39.65 39.13 38.06 37.43 37.16 36.87 37.77 37.23 36.39 35.15 34.24 33.95 33.15
36.82 34.24 31.27 34.96 34.33 33.91 35.16 34.03 35.95 36.23 34.66 28.34 25.52 27.00 33.93 34.94 36.26 36.75 38.15 40.44 40.16 39.29 39.75 38.80 39.29 40.63 40.34 40.93 40.58 40.13 40.05 39.47 38.21 37.85 37.63 36.92 36.75 36.83 36.29 35.56 34.99 34.07 33.34 32.01
37.91 31.96 25.52 29.00 36.48 39.38 37.45 36.14 35.20 29.59 28.28 28.32 27.96 26.96 37.02 35.92 37.82 38.16 38.59 40.24 40.53 39.23 39.03 38.45 38.73 39.10 39.50 39.64 39.82 39.76 39.61 38.94 38.16 37.78 36.96 36.47 36.33 36.34 35.18 34.59 34.33 33.90 32.79 32.64
35.55 30.51 23.03 24.23 31.74 37.02 34.47 34.81 34.44 33.81 32.09 27.15 25.40 26.07 37.76 39.03 38.73 39.45 37.69 39.29 40.17 39.98 38.06 38.25 38.10 37.95 37.78 38.75 39.65 39.75 39.51 38.61 38.12 37.36 36.50 35.84 35.71 34.49 33.71 34.03 33.99 33.76 33.00 32.18
37.91 31.25 27.99 21.99 26.15 31.26 28.52 30.76 32.76 31.89 25.83 26.00 27.12 28.39 33.54 35.24 35.21 37.85 39.23 40.03 40.56 41.08 38.59 37.42 37.32 37.47 37.36 38.42 38.84 38.96 38.70 38.71 38.04 37.08 36.06 34.90 34.40 34.08 33.61 33.80 33.67 33.22 33.41 31.91
32.76 25.53 28.78 29.46 30.45 31.11 30.71 30.67 31.51 29.87 30.52 27.45 29.95 31.22 32.86 34.72 35.33 37.34 39.97 41.14 41.82 41.26 38.82 37.80 37.69 37.58 37.50 37.19 38.31 38.82 38.63 37.95 37.43 36.17 35.52 34.44 34.08 34.09 33.58 33.37 33.62 32.70 32.83 32.37
31.14 20.55 26.57 23.11 27.19 27.75 25.69 28.06 28.16 28.46 29.88 30.04 30.96 29.93 36.88 37.61 38.00 38.36 39.98 40.85 40.50 41.06 42.44 40.19 39.37 38.78 38.27 37.90 38.37 38.92 38.27 37.38 37.39 36.01 35.14 34.75 33.72 33.55 33.43 33.41 33.19 32.20 31.15 30.39
26.40 21.77 18.68 16.19 23.77 24.40 19.83 24.55 26.29 28.11 30.09 29.83 25.48 31.12 35.60 35.25 37.49 38.83 40.03 41.12 40.68 41.29 43.12 42.88 40.30 39.92 39.81 39.69 39.52 38.48 37.95 37.75 36.75 35.87 35.14 34.50 34.12 33.23 32.90 32.80 31.91 29.92 29.37 29.37
25.80 24.20 20.01 17.49 21.26 6.59 23.35 30.01 30.59 28.29 29.86 31.73 32.24 33.68 35.04 36.18 38.48 39.63 41.78 41.23 41.63 43.07 42.42 42.38 41.81 41.17 40.86 40.80 39.73 38.64 37.70 36.68 36.01 35.18 34.37 34.30 33.49 32.70 32.07 31.41 29.80 27.76 28.10 27.18
29.37 21.96 13.28 12.99 15.97 21.09 24.62 28.04 26.53 25.97 27.06 33.07 32.33 34.32 35.55 36.98 36.42 36.19 39.47 41.46 41.17 42.81 43.25 43.67 43.45 40.89 40.32 39.58 38.68 37.55 36.51 35.79 35.00 33.90 33.43 33.45 32.80 31.62 30.89 29.49 27.31 26.85 26.17 25.96
27.11 27.89 23.02 15.73 12.27 10.95 23.87 30.15 33.35 32.47 22.18 33.16 33.27 33.89 34.45 34.72 27.90 33.31 38.05 39.44 38.79 39.12 41.25 42.24 41.40 39.89 39.25 38.55 37.82 36.19 34.90 34.33 33.35 32.81 32.60 32.82 32.26 31.24 29.68 28.11 26.59 26.30 25.82 25.54
18.78 18.99 17.68 16.58 14.40 19.24 28.73 32.10 34.46 21.25 22.39 33.21 35.91 36.29 35.88 33.05 34.64 37.17 39.02 39.18 37.85 38.95 38.46 38.35 37.78 37.44 37.40 36.98 36.35 33.84 33.76 32.45 32.77 32.89 32.42 31.88 31.37 30.25 28.95 26.75 25.63 24.43 24.05 23.71
13.50 11.39 12.80 15.15 5.97 9.17 30.31 30.36 26.04 29.87 34.13 35.84 36.84 37.22 37.05 38.21 38.74 39.10 38.28 36.09 36.98 36.16 35.74 35.56 35.36 34.76 35.25 35.20 34.37 32.47 31.95 32.88 32.89 32.19 31.12 30.31 29.66 28.02 26.66 25.21 24.11 24.20 22.20 20.20
13.48 18.92 16.80 19.18 19.49 28.08 31.99 32.97 35.91 36.61 35.00 35.28 36.00 37.62 36.58 36.67 37.75 38.76 33.59 32.76 34.03 34.94 33.96 34.01 33.34 33.35 33.83 34.12 34.06 31.76 31.44 32.12 31.21 30.22 29.12 28.24 27.31 26.12 25.46 23.47 21.96 21.13 20.75 19.38
23.54 26.80 20.38 22.46 27.42 29.55 33.00 35.19 36.05 36.60 35.36 36.35 37.85 38.51 38.78 36.74 37.94 35.91 31.75 30.17 30.81 31.41 31.93 33.04 32.61 32.33 32.66 34.16 32.31 30.89 30.72 30.57 29.41 27.46 26.64 26.14 24.77 23.98 23.95 23.72 22.63 19.40 17.21 16.32
23.72 26.47 25.28 25.72 29.16 31.52 32.79 34.12 34.51 35.10 35.44 36.23 37.81 38.43 38.14 37.80 37.34 34.27 29.84 29.08 28.81 29.79 30.58 31.41 29.41 28.50 29.43 30.64 30.37 30.26 29.87 29.15 27.11 25.36 24.97 23.23 23.65 21.06 19.80 19.67 18.58 18.12 10.83 16.57
28.47 26.57 24.75 23.53 30.81 29.64 30.17 32.38 33.57 32.76 33.73 34.56 34.54 35.52 36.85 36.55 35.78 30.51 29.82 28.44 28.19 27.82 27.52 27.47 28.16 28.91 29.91 29.79 28.83 28.72 29.04 28.13 25.53 22.72 22.16 21.42 18.90 17.63 16.84 16.25 13.16 21.32 17.36 20.09

GFSCGP_sfc_wetblb_189.txt.gz
Wetbulb
46.51 44.06 41.84 45.49 44.58 46.50 43.91 41.21 40.77 43.74 46.28 43.90 44.49 45.03 47.02 49.73 50.54 52.13 53.19 54.13 54.88 55.03 56.65 54.94 51.89 50.84 51.93 52.27 51.28 50.69 49.53 49.62 48.65 47.38 46.16 45.39 44.79 45.66 46.29 46.87 46.62 46.22 45.34 44.63
43.13 40.52 46.20 47.00 44.25 43.02 41.96 40.08 39.96 43.18 45.62 43.80 44.48 44.16 47.36 48.41 48.18 50.94 52.18 53.57 54.61 55.13 54.56 51.39 49.38 50.62 50.19 50.34 50.75 49.88 49.39 48.85 48.63 47.84 47.28 46.42 45.48 46.06 46.50 46.08 45.79 45.46 44.61 44.12
42.36 43.61 46.42 44.02 42.07 40.06 40.79 39.29 40.21 39.93 44.26 45.30 43.26 42.23 44.06 46.79 47.50 49.83 51.84 53.69 54.62 54.68 53.52 50.44 48.43 49.66 49.64 48.99 49.91 49.56 49.19 48.38 48.42 48.33 46.76 45.77 45.18 45.14 44.03 44.18 44.01 44.11 43.86 43.17
43.95 46.84 44.23 42.90 41.51 42.63 38.89 43.76 42.54 41.45 41.14 37.48 43.50 35.25 43.39 46.06 46.36 46.95 49.14 51.08 52.39 53.54 54.48 51.59 49.26 49.12 49.06 49.35 50.09 49.97 49.10 48.62 48.46 47.37 46.40 44.53 44.50 42.74 44.16 43.70 43.33 42.67 42.86 42.38
43.39 44.77 42.58 41.93 42.82 44.22 41.60 45.65 43.76 42.97 40.59 39.13 40.61 36.79 41.87 42.76 43.31 45.26 47.90 49.09 51.79 53.39 53.27 51.35 49.36 49.77 49.25 49.70 48.73 49.09 48.76 48.70 47.60 46.72 46.41 45.73 44.81 44.90 43.91 42.70 41.53 41.37 41.80 41.78
44.11 47.83 46.82 46.49 47.11 46.72 46.31 43.52 42.25 41.00 39.14 33.89 39.67 37.96 39.67 42.85 43.98 45.54 47.53 48.40 49.75 51.36 51.70 51.32 49.86 50.33 49.13 49.58 48.73 49.07 48.43 47.53 46.74 46.45 46.51 45.80 44.36 42.92 41.89 41.13 40.10 40.04 40.34 40.36
39.11 39.94 44.26 46.56 42.00 45.22 43.60 39.86 34.57 32.01 30.99 31.95 39.98 37.56 40.61 46.10 46.86 44.23 42.38 43.70 46.53 48.93 50.36 49.53 47.75 47.47 48.01 47.36 47.95 47.79 47.33 46.73 46.00 46.13 46.16 45.30 44.54 43.45 42.24 41.35 40.23 38.99 38.68 38.57
35.10 32.67 39.60 42.67 40.97 39.69 41.30 39.49 32.79 26.16 28.39 32.33 36.82 33.87 40.05 43.46 43.75 44.08 44.39 44.86 45.83 46.97 47.63 48.90 47.63 46.47 46.19 46.20 46.98 46.27 46.43 46.46 45.89 45.82 45.40 45.39 44.37 43.78 42.88 42.11 41.18 39.25 38.50 38.46
32.52 34.58 40.71 41.68 40.33 40.51 39.15 36.30 41.88 34.22 35.01 31.47 34.99 39.14 43.39 43.37 41.93 42.70 42.97 43.76 44.64 45.50 45.90 47.25 48.29 46.68 45.85 45.00 44.61 44.46 44.66 45.25 44.67 44.53 44.81 44.23 43.92 43.20 42.58 41.76 41.16 40.05 39.39 38.15
33.54 30.44 36.12 37.66 41.28 41.58 38.10 40.01 33.51 35.45 28.79 26.73 32.79 34.90 36.99 36.58 38.08 40.60 41.07 42.14 44.06 45.41 45.38 45.91 46.05 45.74 45.98 45.36 45.06 45.52 45.14 44.06 43.80 44.27 43.85 43.26 43.13 43.03 42.45 41.59 40.50 39.30 37.82 36.88
35.55 30.96 31.62 35.34 33.30 30.97 32.23 33.22 35.46 35.70 34.16 29.44 28.35 32.56 38.77 37.37 38.79 39.11 40.75 42.17 43.75 44.93 44.66 44.10 44.18 44.83 45.11 44.84 43.98 44.21 44.50 43.98 43.16 43.31 43.41 43.02 42.29 41.87 41.17 40.22 39.67 37.61 37.37 37.01
35.55 33.13 27.46 29.70 36.38 39.40 36.79 34.10 34.12 28.95 25.93 28.31 28.06 29.97 40.34 39.46 40.47 41.13 41.20 42.19 43.64 45.44 45.42 43.82 43.56 43.54 43.22 43.00 43.40 43.49 44.20 43.84 43.17 42.95 42.59 41.89 40.30 40.65 40.08 39.48 38.34 38.49 37.07 36.26
35.21 30.06 23.25 25.70 31.86 35.54 33.60 34.10 33.83 31.73 29.72 24.92 24.34 28.96 39.84 40.81 40.56 42.01 41.45 42.55 43.45 44.85 45.93 44.27 42.68 42.19 42.30 42.71 43.05 43.24 43.59 43.31 42.58 42.00 41.70 41.01 38.84 39.07 38.26 38.20 38.01 37.51 36.22 34.92
37.78 31.96 27.42 21.03 25.54 30.71 28.21 30.36 31.83 30.98 24.93 25.00 26.28 29.00 34.59 37.60 38.86 40.58 41.67 42.20 42.63 44.48 45.48 44.73 43.08 42.64 42.01 42.51 42.84 42.64 43.03 43.67 41.88 41.27 39.95 38.48 37.38 38.84 38.43 37.93 37.38 37.27 36.13 34.43
34.36 26.24 29.45 30.11 30.71 30.53 29.02 28.52 29.10 27.33 29.75 25.84 28.61 29.20 33.96 36.96 38.14 39.93 41.01 41.39 41.88 43.86 44.70 43.89 43.62 42.83 42.06 41.71 41.99 42.68 42.69 42.11 41.46 40.29 39.65 39.03 38.46 37.31 37.42 36.75 37.52 37.10 36.03 34.37
32.75 25.32 27.36 23.85 27.73 27.67 25.60 27.84 28.05 28.04 28.15 28.07 29.30 28.97 37.09 38.83 39.90 39.11 39.36 40.71 42.03 43.79 44.85 45.64 45.15 44.01 42.18 41.31 41.57 42.24 42.50 41.49 41.27 39.99 38.58 38.40 37.28 36.43 35.84 35.69 35.68 36.19 35.23 34.39
29.49 27.21 22.97 19.11 25.51 24.46 19.70 25.39 26.83 28.09 29.99 29.71 25.52 31.76 36.65 35.98 37.12 38.34 39.07 40.59 41.69 43.51 45.24 45.54 46.37 45.44 43.84 42.94 42.48 41.68 42.26 41.32 40.14 38.90 38.52 37.06 36.12 35.20 34.97 34.84 34.42 33.84 33.53 32.83
27.53 26.67 25.48 19.87 22.34 11.33 25.25 31.75 31.13 29.17 30.54 32.47 32.41 33.84 35.89 36.89 38.69 39.69 41.35 42.14 43.04 43.96 44.22 45.12 46.25 47.02 46.43 45.23 43.73 43.36 42.08 39.93 39.13 37.75 36.10 36.06 35.64 34.39 34.07 33.25 32.86 32.67 32.40 31.78
30.94 27.46 21.59 17.50 17.11 21.91 25.15 28.86 29.26 28.44 28.77 34.97 33.21 34.46 36.38 38.18 39.08 39.96 43.03 43.35 43.45 43.40 43.70 44.26 45.17 45.71 47.05 45.37 43.94 42.48 41.29 39.39 38.27 36.30 35.61 35.66 34.60 32.84 32.40 32.01 31.61 31.53 31.42 30.11
28.37 29.34 23.84 20.40 15.47 12.19 24.93 30.62 33.50 34.08 23.02 34.76 35.04 34.98 37.31 38.56 32.99 37.79 42.34 43.29 43.54 42.93 43.00 42.13 43.14 44.35 44.84 44.64 43.16 40.09 38.77 38.02 36.89 35.25 34.68 34.01 33.08 32.60 32.37 31.81 30.89 30.56 30.31 29.42
21.97 21.79 19.46 19.77 17.41 20.94 29.29 31.87 34.76 20.75 24.02 34.70 37.47 37.58 37.54 36.12 38.61 41.24 42.60 42.66 42.55 41.69 40.73 41.02 41.23 40.97 41.63 41.90 40.63 38.95 37.91 36.00 34.77 33.26 32.20 32.02 32.38 32.20 31.81 30.91 30.25 29.49 29.15 27.99
19.56 18.38 17.59 19.44 15.57 12.66 32.03 31.10 25.28 31.99 35.94 37.61 37.85 37.88 37.19 39.42 40.44 40.62 41.37 42.03 40.19 39.66 39.44 38.66 38.39 36.97 38.57 39.65 38.37 36.33 35.28 33.73 32.41 32.28 32.31 32.56 32.13 31.78 30.55 29.12 28.47 28.14 26.71 25.79
19.31 23.66 21.51 22.66 22.49 31.33 32.51 31.51 34.62 36.40 36.73 36.93 36.20 37.65 38.51 38.35 39.11 40.06 40.67 39.54 38.76 37.78 37.28 35.99 35.27 34.63 36.42 36.86 36.51 34.69 32.94 33.09 32.70 32.63 31.75 31.64 31.11 30.16 29.19 27.75 26.77 25.53 25.39 24.11
26.36 29.31 23.89 24.29 27.71 29.60 31.55 33.44 34.86 35.52 35.52 37.66 38.78 38.68 39.06 37.53 38.63 40.09 40.69 38.82 35.17 36.12 35.31 36.06 34.68 34.42 33.35 34.98 34.92 33.80 33.38 32.87 31.92 30.33 29.65 29.62 28.82 28.29 27.86 27.58 27.31 25.47 24.94 24.25
26.81 27.68 25.09 24.90 28.23 30.14 32.10 34.19 35.62 36.54 38.13 37.81 38.28 38.51 37.80 37.44 37.91 39.41 39.29 36.55 34.28 33.87 34.84 35.43 34.29 33.53 32.50 33.20 32.19 32.59 32.49 32.29 30.27 29.22 29.40 28.31 28.04 27.21 26.45 26.17 26.24 26.21 26.50 26.51
28.00 25.89 23.14 21.98 29.12 29.97 31.94 35.50 37.22 36.06 36.39 37.29 36.89 36.93 37.50 37.87 38.39 39.85 36.06 34.01 33.04 32.79 32.53 32.01 32.82 32.41 31.71 31.81 30.91 31.27 31.97 30.87 28.86 27.64 27.66 27.07 26.52 26.33 25.35 24.57 23.66 23.54 22.15 23.26

GFSCGP_sfc_wetblb_192.txt.gz
Wetbulb
53.22 48.73 45.88 48.88 50.74 50.01 48.59 47.27 46.26 49.12 51.79 49.44 48.75 48.90 51.21 53.48 54.13 53.98 55.15 55.93 57.59 59.38 61.18 62.54 61.71 62.81 63.88 63.36 60.32 57.70 57.02 57.24 55.67 53.73 51.85 51.16 50.06 50.83 51.36 51.90 51.43 50.88 50.44 49.70
50.26 45.14 50.41 51.59 51.04 49.58 48.03 46.21 46.20 49.10 50.27 48.98 48.23 48.26 51.39 52.84 53.21 54.26 54.41 55.23 56.51 58.09 59.79 61.19 61.41 61.43 62.19 61.81 60.18 56.90 55.31 55.34 55.52 54.55 53.33 52.35 51.22 51.17 51.41 51.05 50.94 50.66 49.70 49.42
46.85 49.27 50.74 49.72 48.46 46.48 47.03 45.60 45.63 45.26 48.23 49.41 48.23 47.00 49.40 52.36 53.20 54.24 54.89 55.97 56.31 56.78 58.39 60.49 60.18 59.41 60.00 60.43 60.06 57.67 55.65 54.96 55.29 54.86 53.27 52.14 51.34 51.23 49.94 49.31 49.24 48.90 48.95 48.37
45.79 50.17 49.09 48.23 46.24 47.82 43.60 48.95 47.09 44.95 44.24 40.68 47.51 39.98 47.36 49.90 51.06 52.43 53.44 54.86 55.97 56.77 58.60 60.21 60.68 58.07 58.50 60.37 60.44 59.19 57.43 56.35 55.68 54.74 52.70 50.72 49.15 47.87 49.12 49.02 48.97 48.12 48.52 47.45
45.00 46.67 46.90 46.39 47.07 48.93 45.27 49.34 46.94 46.23 44.69 44.50 44.58 42.15 45.92 49.56 47.75 50.37 52.76 54.07 55.33 56.54 57.83 58.34 60.41 59.25 59.03 59.67 58.81 58.31 57.51 56.22 55.02 54.04 52.81 51.16 50.11 50.34 49.89 49.16 48.17 47.57 47.08 46.97
44.99 50.36 49.42 49.07 50.03 49.73 50.05 45.77 46.46 46.52 43.33 37.61 43.09 42.19 43.41 46.48 47.79 48.95 49.05 50.12 51.22 52.35 54.01 56.38 58.42 59.64 58.12 59.23 58.03 57.31 56.46 54.76 54.75 52.98 52.17 51.10 50.81 50.36 48.56 47.71 46.37 46.09 46.06 45.75
43.52 43.33 47.53 49.41 45.83 47.61 47.01 41.78 36.31 34.60 33.71 35.64 44.57 41.76 44.46 47.65 46.84 46.76 46.69 48.34 49.85 51.08 51.98 53.19 54.06 55.73 56.51 56.95 56.40 55.92 55.39 53.30 53.39 52.46 52.05 51.38 51.25 50.70 49.11 47.74 46.58 45.32 44.70 44.29
35.57 35.92 42.72 44.45 43.10 41.69 42.67 41.14 36.02 30.78 33.97 37.06 41.09 37.59 43.09 46.38 47.72 47.63 46.92 48.36 49.67 50.33 51.26 51.66 52.88 53.12 52.77 53.98 54.40 54.19 53.87 53.69 53.73 52.18 51.41 51.24 51.31 50.39 49.62 48.51 47.65 46.33 45.22 44.91
32.56 34.56 42.21 42.00 43.04 43.24 42.06 39.54 44.75 36.49 37.42 31.85 37.58 42.77 44.42 46.84 45.58 45.78 45.33 46.05 46.44 47.83 49.44 50.46 52.16 52.61 52.41 52.21 52.48 52.65 53.07 53.02 52.92 51.21 51.37 51.14 51.64 50.50 49.77 49.10 48.17 46.75 46.33 44.69
35.22 30.02 38.71 38.33 40.42 39.76 37.42 39.85 35.63 36.66 29.00 27.82 35.21 38.70 39.30 42.88 42.56 44.18 44.58 45.33 46.34 47.51 48.40 49.09 49.65 50.83 51.41 52.02 52.14 52.69 52.99 52.36 52.84 50.97 50.93 50.58 50.10 49.78 49.31 48.37 46.77 45.36 44.62 43.51
36.25 33.54 34.30 38.30 34.44 32.11 33.79 33.11 34.34 34.08 31.80 28.48 30.85 35.80 44.09 40.82 41.68 42.53 44.71 45.67 47.27 46.85 47.75 49.37 49.86 49.56 50.26 51.19 50.97 50.71 50.48 50.85 51.25 50.28 50.20 49.44 49.15 49.32 48.48 46.66 45.51 44.54 43.36 41.45
37.96 33.46 29.47 33.21 38.29 40.08 38.15 34.03 32.87 28.21 24.65 27.84 28.79 34.49 43.96 43.36 42.68 43.78 43.61 44.17 45.73 46.74 47.17 49.09 50.05 49.42 48.44 48.60 49.23 49.47 49.64 49.93 50.31 49.78 49.38 48.74 49.21 48.17 46.52 46.12 45.41 42.94 39.41 38.94
38.19 32.37 25.44 29.43 34.91 37.16 32.53 34.43 34.46 32.00 31.08 25.44 24.09 30.74 42.63 41.17 41.74 42.45 42.21 43.13 44.48 45.75 46.15 48.28 49.87 49.77 49.40 48.60 48.63 48.34 48.51 49.01 49.79 49.21 48.72 48.60 48.48 47.16 45.88 45.20 42.37 39.76 39.71 38.19
38.50 32.73 28.72 24.45 29.13 33.68 30.68 32.18 33.49 31.27 26.16 26.46 27.35 29.63 35.79 38.57 38.80 40.44 41.75 43.30 44.43 45.03 45.70 47.57 48.87 49.92 50.35 49.51 49.08 48.71 48.90 49.13 49.30 48.63 47.79 47.64 47.18 45.65 44.89 42.96 40.83 38.88 38.88 37.14
36.43 28.79 31.49 32.52 33.22 33.06 32.30 31.98 32.15 28.97 29.59 25.27 29.14 29.99 34.39 36.55 37.32 39.92 42.08 42.72 42.53 43.16 45.24 46.85 47.74 49.61 50.53 50.18 49.36 48.86 48.93 48.68 48.64 47.21 46.74 46.77 46.58 44.90 42.47 40.88 39.52 38.40 37.57 36.43
36.54 28.36 29.86 26.82 31.08 30.96 28.51 31.08 31.65 31.54 30.93 29.41 30.12 29.66 37.19 39.16 40.00 40.09 40.87 41.40 41.90 42.97 44.88 46.58 47.97 49.06 49.58 50.08 49.14 48.78 48.16 47.96 47.98 46.29 45.72 46.00 44.31 42.59 41.04 41.13 38.02 37.19 37.40 37.04
31.85 29.49 26.44 22.68 28.74 27.67 23.03 28.53 30.36 31.36 33.02 31.67 26.52 32.23 36.92 36.61 38.38 39.43 40.43 41.79 42.37 43.51 45.36 46.77 47.73 48.93 49.93 50.84 50.96 49.53 48.97 48.86 47.02 45.91 45.58 44.49 43.46 41.00 40.49 40.53 37.79 36.76 36.03 35.77
30.51 29.03 27.69 22.39 24.85 15.52 29.06 34.69 33.78 31.39 32.44 34.30 34.58 35.83 37.33 38.49 39.66 39.96 43.23 43.81 44.01 45.46 45.86 46.94 48.02 48.94 49.87 50.88 51.78 51.24 50.12 48.57 46.91 45.44 44.88 43.53 41.41 41.26 39.48 37.45 34.90 34.36 34.86 34.33
33.44 29.75 23.95 20.30 19.71 24.79 27.95 31.19 30.96 29.79 30.13 34.84 34.12 35.52 37.65 39.20 39.21 40.91 44.80 45.46 45.10 45.72 46.43 47.19 48.34 48.73 49.44 50.03 51.14 50.73 48.95 48.04 45.95 45.12 43.51 41.55 38.18 36.43 35.11 33.49 32.63 33.06 33.40 32.93
32.02 32.05 26.32 23.07 16.91 14.41 27.71 33.55 36.14 34.37 23.78 34.99 35.94 36.39 36.84 38.23 34.01 38.26 43.25 43.69 45.05 46.08 47.28 46.92 47.57 48.14 48.55 48.99 50.00 49.18 47.98 46.53 44.35 43.42 42.85 40.59 37.68 34.02 33.15 33.04 32.51 32.87 33.16 32.93
24.92 25.46 22.11 21.89 19.77 23.93 32.21 34.53 35.84 21.87 25.96 36.62 37.56 38.38 38.54 36.62 38.18 41.75 43.79 44.61 45.94 46.89 46.43 46.70 46.81 46.47 47.04 47.03 47.12 46.06 46.15 43.75 43.43 41.73 36.14 34.51 33.78 33.06 32.86 32.51 32.51 32.42 32.65 32.53
22.81 21.28 21.58 22.81 19.11 15.70 34.33 33.37 27.35 33.40 37.26 37.81 36.76 36.49 36.94 38.70 40.04 41.56 42.30 43.47 45.73 45.69 45.34 45.42 44.88 44.98 45.41 45.64 45.21 43.72 39.98 35.00 33.96 32.66 31.97 32.15 32.51 32.86 32.69 32.36 32.00 32.65 31.59 29.79
22.68 26.71 23.67 25.41 25.20 33.74 35.67 34.66 37.12 38.05 36.17 36.65 36.66 37.75 39.33 39.42 40.44 41.23 41.55 42.34 44.15 44.69 44.62 44.50 43.13 41.85 41.71 41.39 40.93 35.95 32.78 33.39 32.36 31.97 32.03 32.45 33.24 33.18 32.68 31.65 30.99 29.85 29.31 28.18
29.74 32.57 26.97 26.75 30.40 32.35 34.44 36.63 37.60 37.86 37.02 37.60 38.26 39.74 40.44 39.85 40.78 40.89 40.75 41.89 43.52 44.72 42.96 42.78 41.42 39.78 37.77 37.65 37.93 34.38 34.09 33.13 33.46 32.33 31.79 32.06 31.76 32.21 32.37 31.86 31.25 29.99 29.31 27.61
30.06 31.26 28.12 28.20 31.40 33.00 34.45 35.96 36.86 37.74 38.81 38.37 40.21 40.91 40.53 40.37 39.83 40.42 40.35 41.72 43.60 42.79 41.30 41.22 40.77 39.30 37.26 36.38 35.31 35.26 34.40 35.00 33.70 32.38 31.97 31.42 31.59 31.77 31.40 31.20 30.80 30.23 31.32 31.08
31.30 29.55 27.72 27.44 32.91 32.92 33.96 36.98 38.18 36.88 37.60 38.97 38.99 39.60 40.87 40.36 39.88 40.13 40.83 42.36 41.54 40.17 39.80 38.91 38.75 36.79 35.30 34.22 33.34 34.09 35.21 34.54 32.74 31.13 31.62 31.88 31.95 31.42 31.23 28.98 28.41 28.07 28.89 28.18

GFSCGP_sfc_wetblb_195.txt.gz
Wetbulb
55.04 51.16 48.61 50.78 52.50 51.92 50.48 49.12 48.23 50.62 53.09 51.53 50.77 51.21 52.54 54.62 55.09 55.15 55.48 56.44 57.63 58.31 60.83 64.13 66.03 67.20 67.02 66.74 64.63 62.72 62.25 62.26 60.88 57.48 55.71 55.26 53.90 54.50 54.44 54.34 54.37 53.84 53.28 53.24
50.91 47.96 52.70 53.54 52.72 51.05 50.33 48.81 48.38 51.13 52.82 51.86 50.91 49.97 52.58 53.85 54.30 55.36 55.52 56.16 56.95 58.14 59.13 61.64 64.57 65.95 65.64 66.21 64.72 63.26 62.31 61.63 60.48 58.84 57.23 56.59 55.47 54.20 53.90 53.79 53.65 53.47 52.63 52.53
46.94 50.22 53.63 51.82 50.66 49.10 49.60 48.05 48.51 48.32 51.07 52.45 50.21 47.84 49.80 52.89 54.54 55.52 56.26 57.06 57.45 57.63 58.14 59.62 62.59 64.00 64.52 65.33 64.49 62.67 61.71 61.16 60.78 59.78 57.99 56.34 55.42 54.16 52.32 52.12 51.98 51.93 51.97 51.50
47.78 50.74 49.25 49.05 48.57 50.02 46.14 51.06 50.10 48.57 46.84 43.09 50.24 41.83 48.72 51.41 51.88 53.36 54.68 55.89 56.70 57.40 58.29 59.00 60.91 63.10 63.69 64.27 65.33 62.14 61.04 60.67 60.16 60.22 57.83 55.65 53.28 50.96 51.68 51.57 51.85 51.20 51.50 50.69
45.87 47.96 47.65 46.91 47.75 49.54 48.08 50.72 49.35 47.78 44.81 43.48 45.80 42.05 47.15 50.96 49.77 51.74 53.78 54.30 55.27 56.06 56.61 58.28 59.68 62.65 63.33 63.73 64.02 61.76 60.15 59.03 58.06 57.83 56.65 56.01 53.79 54.16 53.04 51.91 51.64 50.63 50.34 50.02
46.39 50.13 48.14 47.41 49.29 49.95 51.04 47.89 46.86 46.26 42.98 35.68 43.70 42.97 45.13 47.60 49.28 50.45 50.30 51.14 52.59 53.30 54.43 55.98 59.10 61.40 62.71 62.60 62.80 62.14 59.76 57.66 56.99 55.35 55.43 54.21 55.17 54.00 52.42 51.05 50.29 49.50 48.85 48.29
46.26 46.56 49.30 48.79 44.80 48.41 46.80 43.20 35.90 34.81 34.60 35.60 45.45 42.48 45.49 48.93 49.69 48.98 48.29 48.65 50.72 52.60 53.16 53.79 54.77 57.82 60.72 60.36 60.62 61.66 59.82 58.15 56.97 54.87 54.23 54.08 54.93 54.74 52.56 51.46 50.50 48.94 47.80 47.39
38.42 37.63 44.24 46.19 43.79 41.82 44.19 41.24 37.64 32.36 33.53 37.62 43.71 39.94 44.26 49.56 48.74 48.92 49.12 48.85 48.81 49.27 50.88 52.29 54.20 54.93 55.86 57.73 59.77 60.35 59.40 58.23 57.10 55.17 54.11 53.68 53.89 54.86 53.36 52.11 50.76 49.42 48.35 48.12
37.02 37.40 44.26 44.09 44.41 43.69 42.26 39.42 43.80 36.42 37.65 34.32 38.05 41.77 45.52 48.00 46.92 47.60 47.78 48.42 47.98 48.65 49.42 49.63 51.61 53.99 54.66 54.69 56.11 57.92 57.09 57.35 57.97 55.80 54.00 52.94 52.66 52.67 52.74 52.76 51.32 50.63 50.21 48.20
37.76 33.22 42.01 42.07 42.61 40.59 39.91 41.94 35.38 37.07 29.44 28.14 36.64 39.58 39.92 41.45 41.52 45.74 46.10 46.23 47.48 48.69 48.77 49.97 50.88 51.08 52.23 53.71 54.99 56.32 56.44 55.77 56.18 56.10 54.69 53.73 53.17 52.31 51.46 50.57 48.04 48.53 49.18 48.19
39.81 36.03 37.04 40.62 38.44 36.67 37.73 36.08 33.32 34.73 31.69 26.75 29.22 35.61 38.97 37.39 39.94 42.15 43.79 45.73 46.45 47.12 47.67 48.19 50.36 51.56 51.55 52.15 52.47 53.08 53.84 54.70 55.24 55.66 54.53 53.17 53.34 52.30 50.00 48.16 47.51 46.71 48.01 46.08
40.41 36.25 31.36 34.90 40.78 43.14 39.69 36.61 35.27 29.25 27.45 29.22 28.26 31.81 42.44 41.19 41.37 41.87 42.21 44.01 45.87 46.77 47.67 48.03 49.25 50.97 51.17 51.01 51.45 51.30 51.85 51.77 53.40 54.60 55.19 53.02 51.94 51.47 48.85 47.73 47.21 46.71 45.49 45.33
39.84 34.28 27.79 30.44 36.49 39.73 35.99 35.64 35.08 34.04 32.21 27.95 26.64 30.11 43.03 43.11 40.79 41.31 41.50 42.86 44.47 45.47 46.22 47.09 48.82 49.74 50.85 51.24 50.89 50.40 50.48 50.63 51.66 52.35 53.05 52.64 51.14 49.70 48.61 47.06 46.63 45.71 44.33 42.26
39.49 34.20 29.63 25.28 30.33 34.88 32.10 34.57 36.74 34.79 28.92 28.28 29.72 32.55 36.55 38.15 38.61 39.50 39.79 41.40 43.02 44.12 44.73 45.77 47.38 48.99 50.76 51.55 52.27 51.79 51.55 51.04 50.86 51.14 51.15 50.73 50.83 50.73 49.62 48.43 46.50 43.84 41.32 40.90
36.78 29.09 31.78 32.82 34.13 34.47 33.85 33.86 34.47 32.02 33.34 28.26 31.66 32.04 35.53 37.00 37.47 38.80 40.19 41.04 41.66 42.21 43.29 44.80 45.89 47.67 48.84 50.85 51.97 52.81 52.38 52.08 51.43 50.57 50.43 50.06 49.92 49.66 48.53 47.76 44.65 42.46 40.88 39.83
37.83 29.77 31.98 28.54 33.06 32.90 31.01 33.41 33.89 33.46 33.53 33.11 33.28 32.48 38.85 39.84 39.39 38.41 39.24 40.97 40.48 41.52 43.69 45.15 46.19 48.00 48.98 50.20 51.22 52.17 52.22 51.96 51.94 50.30 49.70 49.89 48.76 47.91 46.00 43.27 42.20 41.76 39.87 38.49
33.60 31.48 28.26 24.25 30.88 29.93 24.41 30.82 32.40 33.32 34.66 33.76 29.78 34.85 38.35 37.57 38.30 38.85 40.05 40.85 40.38 42.92 44.50 45.63 47.64 48.32 49.54 50.46 51.44 51.50 52.40 52.74 51.15 50.12 49.82 48.97 48.43 45.42 43.80 41.74 40.51 38.60 37.72 37.80
32.10 30.73 29.79 24.24 27.25 16.87 30.65 36.46 35.77 33.68 34.31 35.26 34.95 36.07 37.46 38.63 40.26 40.76 42.46 41.58 43.50 44.61 45.88 46.96 47.59 48.67 49.92 50.98 51.47 52.14 52.47 52.72 51.45 50.04 49.18 48.54 47.65 44.99 41.50 40.48 38.48 37.38 37.01 36.15
35.36 31.35 26.19 21.75 21.29 26.31 29.56 32.70 32.53 31.28 30.87 35.20 35.49 36.89 37.40 38.09 38.93 39.53 42.21 44.53 44.44 44.51 45.99 46.72 48.43 48.74 49.32 50.08 51.02 50.95 51.06 52.27 51.54 50.20 49.05 48.26 45.81 42.54 40.00 37.73 36.43 35.77 34.15 33.51
33.92 32.64 27.85 23.70 18.35 15.86 28.77 34.97 36.71 34.81 24.56 36.19 36.66 36.18 36.53 38.39 33.30 38.22 43.11 43.62 43.94 45.02 45.91 46.49 48.44 48.60 48.52 49.43 50.49 49.73 49.69 51.01 50.22 49.81 48.82 48.18 44.30 40.20 36.36 34.90 33.58 33.52 33.63 32.81
26.58 27.46 23.18 23.18 20.91 24.81 33.61 35.74 36.86 22.05 26.50 36.90 37.37 36.62 37.92 35.78 37.13 39.27 40.48 42.03 44.25 45.07 45.94 47.99 47.83 47.53 48.24 49.43 49.48 48.01 48.58 47.44 44.74 42.12 39.99 36.73 36.00 34.37 33.61 32.89 32.90 32.56 32.01 32.30
25.08 23.31 23.07 23.63 20.24 17.26 35.84 34.76 27.93 33.87 36.90 37.17 37.47 38.28 38.69 39.33 39.06 39.32 41.39 42.45 43.87 44.27 44.16 46.14 46.65 46.64 48.04 48.65 47.88 46.92 39.21 37.72 37.07 34.91 34.01 33.64 33.27 32.74 32.54 32.69 32.19 32.18 32.23 31.73
24.12 28.08 24.91 26.47 25.96 34.82 36.37 35.12 37.77 38.16 36.55 37.35 37.32 38.18 38.61 38.19 38.21 38.89 40.49 42.79 43.62 43.66 43.69 46.15 46.12 46.12 46.60 45.12 44.83 41.78 35.42 35.87 33.80 33.10 32.56 32.35 32.19 32.30 32.69 32.32 31.91 31.63 31.82 30.19
29.67 32.95 27.97 28.04 31.74 33.30 35.40 37.45 38.51 38.88 38.18 39.15 39.61 39.30 39.24 38.17 38.40 39.48 41.28 42.64 42.76 42.98 43.87 45.74 45.82 45.29 43.85 42.48 39.18 37.85 34.72 33.64 32.56 31.83 31.83 31.83 31.77 31.98 32.60 33.19 32.94 31.58 30.91 29.24
30.22 31.71 29.41 28.97 32.72 34.29 35.61 37.26 38.30 38.68 39.56 39.21 40.07 39.48 39.68 39.41 40.21 41.51 41.71 41.88 42.46 42.93 44.22 45.77 44.55 44.05 41.75 37.37 35.94 35.11 34.14 33.03 32.92 32.14 32.01 31.83 32.00 32.00 32.07 32.48 32.33 31.67 31.88 31.16
32.34 30.29 28.77 28.27 34.44 34.86 35.10 38.48 39.34 38.14 38.13 39.17 39.09 39.46 41.03 41.11 40.51 42.02 40.73 41.82 42.08 43.27 44.18 43.60 43.33 41.73 38.16 35.30 34.60 34.74 35.72 34.35 33.42 31.94 32.54 32.98 32.51 32.19 32.19 31.85 30.92 31.29 31.09 31.45

GFSCGP_sfc_wetblb_198.txt.gz
Wetbulb
54.46 50.10 47.20 49.69 51.38 50.82 49.77 48.28 47.27 49.84 52.69 51.23 50.72 50.79 52.07 54.28 54.35 54.04 54.76 55.26 56.21 57.02 59.06 62.02 64.16 67.10 67.08 66.91 64.81 64.04 62.27 60.94 60.26 58.24 56.14 54.54 53.34 54.32 53.99 54.06 54.08 53.78 52.91 52.85
48.41 45.43 50.45 52.30 51.97 50.41 49.47 47.42 47.21 50.35 52.07 51.54 50.53 49.97 52.86 53.97 54.18 54.51 54.62 54.78 55.69 56.95 57.99 59.46 63.55 66.14 65.79 65.99 63.81 63.19 62.02 60.75 59.49 58.02 56.20 55.08 54.36 53.94 53.61 53.21 52.94 52.83 52.38 52.26
44.94 48.04 51.55 49.83 49.46 48.32 48.51 46.96 47.39 46.92 50.25 51.57 49.81 47.80 50.17 53.37 54.55 54.83 55.48 56.06 56.35 56.40 56.97 58.28 61.82 64.63 65.03 64.96 64.06 63.12 62.27 60.69 59.47 58.25 56.74 55.44 54.64 53.26 51.85 51.57 51.09 51.57 51.47 51.36
46.15 49.43 47.77 47.17 46.19 48.23 44.72 50.27 49.13 47.78 46.21 42.13 49.55 39.94 47.55 50.77 51.94 53.64 54.51 55.73 55.40 56.59 57.36 58.03 59.18 63.18 64.98 64.80 64.63 63.48 62.30 60.09 59.26 58.41 56.51 54.50 52.11 49.82 50.47 50.53 50.78 50.63 50.80 50.41
44.57 46.91 47.34 46.10 46.87 49.02 45.81 49.98 47.99 47.34 45.09 44.33 44.46 40.61 44.90 49.56 48.99 51.51 54.04 52.86 53.01 53.25 53.52 54.10 55.88 62.58 64.23 64.57 64.57 62.82 61.52 60.06 59.18 58.29 57.21 55.10 52.75 51.55 51.39 50.80 50.53 49.34 49.59 49.58
45.87 49.87 47.95 46.89 48.76 49.52 50.16 47.37 46.48 46.81 44.25 35.88 42.35 41.25 42.05 45.80 48.05 50.94 50.17 50.60 51.30 51.84 52.77 53.49 55.47 58.00 63.23 63.69 63.71 62.60 60.32 59.41 58.59 57.89 56.89 54.99 53.42 52.58 50.24 49.24 49.03 48.48 48.52 48.12
44.93 45.72 49.16 48.87 45.11 47.79 46.74 43.12 35.26 34.49 34.98 34.05 44.30 41.04 43.30 47.56 49.29 48.47 47.69 48.08 49.16 49.98 50.12 50.74 52.44 54.08 56.23 61.08 62.44 61.55 59.75 57.88 57.47 56.49 54.54 53.11 53.11 52.41 50.43 50.03 49.07 48.26 47.32 46.45
36.66 35.15 45.17 47.00 44.22 42.15 43.30 42.56 35.12 30.02 32.07 35.09 41.07 37.06 41.14 47.37 47.60 48.23 48.07 47.98 48.70 48.90 49.75 49.08 50.13 51.21 53.40 55.41 59.82 61.28 59.63 57.28 56.23 54.75 53.93 53.20 52.77 52.66 51.24 50.31 49.20 48.12 47.18 46.32
36.40 37.04 46.28 45.74 45.84 44.05 41.53 38.58 42.25 35.75 37.48 32.27 36.26 40.13 45.34 45.77 43.29 45.07 44.77 45.90 46.27 47.73 48.85 49.69 50.57 50.65 51.02 52.89 54.70 58.21 59.09 58.12 56.39 54.37 53.59 52.92 51.97 51.99 50.69 50.05 49.67 48.63 47.83 47.28
39.64 32.66 41.26 43.01 43.88 43.82 41.28 42.16 35.28 36.13 29.14 26.82 34.11 36.61 35.15 35.71 37.48 40.37 41.50 42.44 44.21 46.40 47.24 47.91 50.50 51.27 51.16 51.96 52.65 54.36 55.92 56.34 57.52 54.47 53.58 53.32 51.70 51.28 50.77 49.93 48.30 47.91 46.85 46.48
40.01 36.34 35.73 39.97 38.96 37.34 37.52 36.19 36.07 34.85 32.91 27.95 26.93 31.58 38.23 37.12 37.48 37.79 39.98 42.04 42.26 43.43 45.95 46.98 47.92 52.14 51.80 51.62 51.56 51.86 52.96 54.03 54.27 55.47 54.17 52.89 51.94 51.46 50.88 48.91 48.11 47.25 46.40 45.55
40.58 35.91 30.59 34.36 40.12 41.35 40.62 37.18 36.80 29.80 27.99 30.69 28.42 29.88 41.30 40.61 41.49 40.01 39.63 41.07 42.25 43.49 45.12 46.53 47.09 48.58 51.71 50.55 50.47 50.97 51.27 51.49 52.32 53.57 54.60 52.88 52.13 51.20 49.91 48.11 47.40 46.61 45.01 44.45
38.79 33.93 27.50 29.78 35.34 38.82 35.79 37.18 37.44 35.30 33.02 26.93 25.38 29.47 42.91 43.43 43.79 42.71 40.84 41.50 41.46 42.35 44.02 45.83 46.56 46.28 48.63 51.42 50.72 49.76 50.07 50.43 51.07 51.15 51.53 51.95 51.12 50.41 49.38 47.28 46.37 45.49 43.40 42.86
39.24 33.55 29.60 24.79 28.88 32.93 30.59 33.12 35.75 33.95 28.39 29.10 29.52 32.02 37.23 39.85 39.88 40.77 41.03 41.27 41.44 41.83 42.86 44.01 44.83 46.38 47.59 49.05 51.89 50.79 50.35 49.90 50.11 50.37 50.78 51.01 50.20 49.53 48.24 46.89 45.82 44.52 42.91 41.59
37.01 29.50 31.19 31.52 32.46 32.82 31.89 31.94 32.87 31.48 33.10 28.77 31.28 31.99 36.46 38.41 39.11 39.86 40.94 41.05 40.62 41.40 42.94 43.37 43.91 45.30 47.08 48.13 49.53 52.10 51.39 51.46 50.35 49.39 49.44 49.62 50.37 49.62 48.17 46.26 44.83 43.63 41.72 39.87
36.44 29.50 30.94 28.26 32.01 32.05 29.91 32.70 32.90 33.07 33.38 33.11 33.44 32.61 38.58 39.80 40.25 39.52 39.65 40.07 39.84 41.17 41.69 43.18 44.84 45.58 46.60 49.02 48.82 50.30 50.68 51.41 51.22 49.57 48.87 50.05 49.78 49.21 47.77 45.34 43.83 40.53 39.68 38.50
32.61 30.04 27.70 23.85 30.09 29.37 24.21 30.02 31.75 32.58 34.01 33.36 28.78 33.84 37.74 36.85 37.59 38.24 39.10 40.08 41.48 42.78 44.06 45.26 46.10 47.12 47.63 48.45 49.94 49.07 49.74 50.69 51.03 50.03 49.65 49.39 49.00 48.12 46.33 43.95 41.27 39.22 37.98 37.20
31.30 30.13 28.53 23.56 26.09 16.23 29.50 35.94 35.27 32.70 33.58 34.85 34.45 34.68 35.91 37.00 39.14 39.56 40.16 40.97 42.16 43.65 44.27 45.07 45.51 46.61 47.97 48.41 48.83 49.85 50.19 49.63 49.63 49.80 49.46 49.33 48.04 46.97 43.26 40.97 39.77 37.92 36.90 35.74
35.02 30.54 24.45 20.48 20.55 24.93 28.44 32.02 32.02 30.68 30.03 33.88 33.42 35.14 36.49 37.78 39.00 38.13 40.52 41.52 40.98 42.27 43.51 45.00 46.56 46.96 47.82 47.52 48.01 48.44 49.21 48.84 48.93 49.57 49.21 48.79 46.89 44.32 40.96 38.51 37.67 36.83 35.77 35.21
33.97 33.76 26.76 23.30 18.38 14.76 27.31 33.84 36.73 35.30 23.80 34.99 35.47 35.73 36.13 36.49 30.85 35.15 41.37 40.56 40.17 41.79 43.17 44.00 45.93 47.18 46.78 46.85 47.96 47.66 47.37 47.63 46.75 46.96 47.90 46.56 44.06 41.09 38.95 37.57 35.41 36.04 35.00 32.51
26.21 27.00 22.61 22.48 20.09 23.84 32.09 34.70 36.25 21.90 24.93 34.64 35.64 36.23 36.40 33.84 36.12 38.62 41.66 41.08 40.90 41.11 43.28 45.17 44.96 45.72 46.19 46.64 47.75 46.73 45.10 40.98 41.79 40.14 38.09 38.31 39.02 37.76 36.13 34.86 33.75 32.89 32.16 31.94
23.92 22.18 21.98 23.13 19.29 16.57 35.26 33.98 27.46 32.54 36.72 37.12 37.02 37.34 36.57 37.92 38.80 39.40 39.33 40.10 40.41 39.96 42.77 44.80 44.14 44.12 46.33 47.07 46.38 44.87 36.95 36.35 35.87 35.05 34.14 33.96 34.14 34.09 33.90 32.80 32.18 32.33 31.86 31.32
21.98 27.01 23.86 25.10 24.49 33.88 36.31 35.19 37.90 38.04 36.61 37.51 37.54 38.73 38.81 38.13 38.49 39.43 38.90 39.62 39.48 40.11 42.56 44.53 42.97 44.33 44.45 46.10 43.29 40.87 36.33 35.73 34.06 33.05 32.67 32.45 32.66 32.57 32.66 31.85 31.55 31.36 31.52 30.31
29.35 32.41 25.94 27.37 30.38 32.28 34.99 37.45 38.35 38.64 37.72 39.02 39.82 39.34 39.18 37.78 39.10 39.18 39.66 39.55 40.17 41.99 42.02 42.75 42.97 43.54 44.18 40.48 38.32 36.44 34.96 33.96 33.05 31.77 31.62 31.65 31.60 31.63 31.66 31.88 32.13 31.56 30.71 29.54
30.02 30.64 28.03 27.95 31.71 33.68 35.15 36.61 37.76 38.64 39.55 39.53 39.89 39.68 39.38 39.11 38.90 39.55 39.73 39.73 38.86 41.22 42.64 42.71 43.29 43.66 38.61 37.91 35.74 35.07 34.26 34.00 32.73 31.91 31.63 31.66 31.62 31.57 31.63 31.73 31.85 31.13 31.45 30.41
31.73 29.08 26.03 25.04 32.66 32.75 33.92 38.06 39.65 38.16 37.72 38.81 39.12 38.73 39.61 39.78 39.43 40.35 39.41 40.34 41.75 41.41 41.72 42.35 43.58 42.33 37.05 35.95 34.63 34.24 34.82 33.98 32.45 31.31 31.20 31.40 31.26 31.34 30.90 29.96 29.71 32.01 31.40 31.62

GFSCGP_sfc_wetblb_201.txt.gz
Wetbulb
48.86 44.77 42.89 44.74 47.21 47.56 46.51 44.72 43.68 47.31 50.93 48.85 47.49 47.38 49.21 49.78 49.37 48.36 48.45 48.79 49.68 51.36 53.82 54.72 63.80 65.36 65.33 63.69 62.67 62.25 62.32 63.48 63.25 61.38 58.66 56.58 55.58 53.04 51.54 52.72 53.05 51.52 51.26 50.56
44.56 41.03 46.77 50.37 50.11 48.16 47.04 45.02 44.25 47.73 49.79 48.88 47.35 46.66 49.33 49.96 50.40 50.13 50.16 48.97 49.46 50.04 52.23 54.65 59.13 64.22 64.56 63.57 62.40 61.53 61.90 62.32 62.01 60.47 59.12 56.09 55.72 54.05 52.94 51.66 52.59 52.05 50.79 49.42
40.40 44.63 49.24 47.33 46.10 45.04 44.99 44.05 44.70 44.46 47.56 48.08 45.71 44.47 46.98 49.52 51.00 52.05 52.05 51.40 50.31 50.02 50.75 52.12 57.36 63.52 64.25 63.33 62.34 61.68 61.99 60.90 60.93 59.93 57.36 53.99 54.51 52.02 50.10 49.37 50.75 50.99 50.71 49.44
42.10 46.27 45.21 44.29 42.86 44.28 40.09 46.48 46.22 44.76 43.34 38.39 44.78 35.82 43.94 47.31 48.54 50.55 48.44 47.59 47.60 48.50 50.05 51.39 52.67 61.68 63.12 62.94 63.46 62.58 61.82 59.55 59.51 57.55 55.61 53.28 51.57 50.76 51.00 48.31 51.14 51.29 50.34 48.99
40.98 43.38 43.02 41.60 43.58 45.69 42.37 47.16 45.11 44.03 40.26 39.67 40.97 38.62 41.81 46.48 45.63 45.88 45.54 45.91 45.46 46.39 47.43 48.19 50.33 52.49 62.54 62.46 62.73 61.89 60.56 59.05 58.19 56.30 55.34 53.34 52.14 52.16 51.20 51.03 50.76 50.31 49.11 48.33
42.60 46.70 44.59 43.61 45.50 45.39 45.91 43.48 42.37 41.53 39.35 33.93 39.74 38.46 38.76 39.17 41.61 42.49 43.89 44.70 45.21 45.36 46.21 48.36 50.29 51.72 59.31 60.13 61.66 60.87 60.02 58.52 57.91 55.89 55.02 53.67 52.11 50.58 49.22 48.80 49.14 49.33 48.79 48.20
41.33 41.47 44.17 46.63 41.46 44.20 41.49 38.07 28.57 27.94 28.64 30.06 39.98 37.29 38.92 40.35 43.37 42.81 42.15 42.53 43.30 44.31 44.38 47.30 48.02 49.44 50.44 54.76 59.38 59.54 59.31 57.86 57.49 56.80 55.71 54.47 52.50 50.76 49.42 48.75 48.84 48.42 48.38 48.38
33.26 32.02 41.66 45.42 42.11 39.37 40.15 39.00 28.69 25.44 25.88 30.15 39.13 34.55 38.77 42.12 43.01 43.42 43.29 42.74 42.55 41.93 43.34 46.08 48.16 48.46 49.90 50.76 55.85 59.20 59.27 57.78 57.79 56.98 55.55 53.14 52.97 51.77 50.22 49.33 49.08 48.38 48.41 47.71
33.52 34.19 42.76 43.84 44.38 42.32 38.58 34.85 39.16 33.59 34.39 30.33 32.40 37.08 39.77 41.33 40.82 41.15 41.35 41.18 41.56 41.67 42.34 44.32 45.67 48.53 48.85 50.41 51.53 54.96 57.30 56.24 55.15 55.84 53.87 51.94 52.34 51.69 50.43 49.85 49.22 48.27 47.84 46.66
37.76 30.23 39.34 41.27 43.21 41.97 39.55 40.16 30.90 32.32 24.50 22.62 29.82 32.11 33.09 36.18 37.59 38.63 39.25 39.53 40.90 42.07 42.51 44.28 45.69 46.06 47.95 48.95 49.29 50.33 52.71 56.32 55.42 54.66 53.84 52.44 52.14 52.17 51.33 49.10 47.86 47.64 46.97 46.41
38.40 34.32 33.66 37.11 36.57 35.51 35.70 33.88 33.96 32.45 26.87 20.35 22.12 26.83 37.52 36.56 37.08 37.82 38.66 40.41 40.90 41.03 41.47 42.97 46.18 47.19 46.92 48.67 48.18 47.99 48.48 49.57 52.34 54.09 53.30 52.86 51.80 51.46 51.52 49.96 48.51 47.83 46.63 46.18
39.57 33.50 26.84 31.60 37.24 38.55 36.48 34.31 34.30 26.95 21.95 21.94 23.24 25.35 39.44 37.51 38.69 41.45 41.33 41.93 42.18 42.04 40.85 42.75 44.08 44.78 45.58 48.31 48.99 48.22 48.47 48.48 48.61 50.34 52.20 52.46 52.01 50.86 49.57 49.16 48.00 47.21 45.86 45.56
37.93 31.38 25.26 26.77 30.74 35.41 32.01 33.15 33.92 33.80 29.10 22.91 19.91 23.93 38.58 39.36 40.64 42.79 41.57 41.27 42.24 42.22 41.13 42.18 43.77 44.21 44.35 45.41 48.29 48.26 47.71 48.66 49.32 49.17 48.12 51.78 51.29 50.72 50.18 48.91 47.60 46.46 45.40 44.76
39.06 31.99 27.73 21.34 26.15 30.67 27.96 31.17 32.78 32.70 25.95 25.37 26.53 28.55 34.47 38.12 39.43 41.56 40.18 39.17 38.57 40.56 41.75 41.42 42.34 43.07 43.94 45.52 46.60 48.61 48.59 48.42 48.70 49.00 47.39 48.96 50.08 50.20 49.36 47.33 45.84 44.63 44.35 43.49
35.91 26.89 29.67 31.11 32.06 31.45 30.09 29.78 30.34 28.74 29.88 24.68 28.48 29.58 33.72 36.00 36.03 35.68 37.25 38.01 37.25 38.26 40.24 41.55 41.80 42.18 43.15 43.76 45.48 46.35 48.94 48.85 48.35 47.84 47.07 47.73 49.37 48.87 47.17 45.47 44.40 42.98 42.78 41.89
35.65 26.35 30.14 27.77 30.57 30.50 28.41 30.30 30.38 30.72 31.28 30.76 30.72 29.29 35.00 34.61 35.94 36.02 36.47 37.10 38.79 40.22 41.49 42.58 43.12 44.14 44.33 44.75 45.66 47.29 48.95 49.71 48.88 47.62 47.26 47.88 48.74 47.81 45.58 44.41 43.18 41.63 40.98 40.25
30.81 28.75 26.44 21.98 27.93 27.19 20.33 26.80 29.38 30.53 32.43 31.40 26.20 31.03 33.58 32.51 34.07 34.63 35.28 38.74 39.46 39.71 40.65 41.93 42.75 42.88 43.67 44.23 45.97 46.14 46.61 47.63 48.43 47.86 48.19 48.17 48.18 47.55 45.23 43.39 41.91 39.33 38.75 38.39
26.63 25.67 25.55 21.41 23.91 13.13 25.78 33.39 32.68 29.79 30.94 32.65 31.63 31.75 33.20 33.43 34.83 35.10 36.59 36.59 36.50 37.28 37.93 38.59 39.94 41.86 43.35 45.02 45.13 45.83 46.32 46.57 46.27 46.26 47.88 48.32 47.74 46.91 44.41 42.18 39.55 38.44 37.63 36.99
30.88 25.61 17.19 16.19 17.63 22.25 25.90 29.45 28.59 27.00 27.42 32.57 30.81 32.45 33.47 34.83 33.95 32.62 37.59 37.76 36.12 36.70 37.59 37.83 39.08 40.63 42.89 43.29 45.31 45.49 44.78 44.79 46.31 45.39 44.87 47.11 46.17 43.54 41.69 38.53 37.25 37.32 35.97 35.45
31.59 30.26 24.36 21.78 16.93 13.91 23.84 31.29 33.97 31.33 20.47 32.75 32.81 32.43 32.04 33.03 23.37 28.05 35.79 37.35 37.78 37.91 37.03 37.70 40.72 42.20 43.56 43.56 44.88 45.02 43.40 41.52 40.53 40.42 40.32 41.42 43.14 41.89 39.66 38.18 36.42 36.10 35.75 34.28
21.43 19.25 7.59 11.84 9.89 20.17 29.74 32.53 34.03 18.89 20.49 32.04 32.96 32.62 31.76 29.16 30.30 34.03 36.42 37.43 38.10 38.19 38.17 38.63 39.08 41.64 41.12 42.95 43.86 40.56 38.30 36.90 38.14 37.50 35.76 35.07 34.84 37.75 38.82 36.93 36.19 34.89 33.86 32.59
20.44 19.40 15.95 17.08 8.89 9.69 32.06 30.52 23.84 28.38 32.66 32.85 32.91 32.40 32.27 33.54 35.07 36.15 36.72 37.02 37.36 36.80 37.24 37.43 37.54 38.94 41.31 43.10 41.86 37.13 35.77 36.17 34.93 33.86 33.32 33.14 33.86 34.22 35.13 35.13 33.86 33.63 32.47 31.39
17.87 21.73 21.45 21.68 21.63 29.28 31.83 30.30 32.91 33.40 32.26 32.86 32.24 34.14 34.56 34.61 35.06 35.77 35.45 36.47 37.63 38.01 37.83 37.64 38.28 38.78 41.24 40.33 39.81 35.66 35.34 35.09 33.68 32.77 32.23 32.41 32.74 32.95 33.32 32.79 31.98 31.46 31.63 29.33
24.76 28.48 20.77 22.81 26.60 28.48 30.75 33.02 33.98 34.40 33.40 34.88 35.58 35.45 35.85 34.19 35.69 35.56 35.67 36.39 37.46 37.63 36.40 37.79 38.68 38.45 37.14 36.39 35.05 33.83 33.75 33.68 32.76 31.70 31.51 31.88 31.60 31.48 31.70 31.90 31.86 31.15 30.21 28.51
25.04 26.52 23.78 23.93 27.76 29.76 31.53 33.26 34.26 34.95 36.15 36.35 37.36 36.47 36.50 36.72 35.92 36.63 36.77 36.77 37.73 37.88 37.86 38.89 39.13 39.56 36.14 34.16 33.93 33.50 33.53 33.36 31.83 31.45 31.48 31.31 31.64 31.49 31.36 31.52 31.63 31.02 31.21 30.37
28.25 25.58 21.99 21.74 29.54 29.62 31.07 34.77 36.72 35.10 35.42 36.91 36.67 36.05 36.73 36.59 36.19 37.85 36.00 37.28 38.02 38.02 40.29 39.11 39.05 36.40 34.84 33.97 32.81 32.32 34.31 32.68 31.22 30.36 30.63 30.89 30.65 30.52 30.11 29.46 29.07 31.83 31.26 31.72

GFSCGP_sfc_wetblb_204.txt.gz
Wetbulb
47.77 43.06 41.45 43.83 44.99 45.96 45.02 43.08 41.93 45.17 48.61 46.89 45.93 46.27 48.46 48.18 48.04 48.29 48.79 49.18 48.82 48.35 50.20 60.54 64.57 64.98 64.77 64.43 64.14 64.20 64.49 64.65 64.40 63.44 62.52 60.77 59.95 58.87 57.53 58.58 57.21 54.46 53.02 51.78
41.93 38.33 44.90 47.59 47.68 46.21 45.28 43.37 42.61 45.60 47.70 46.95 46.21 45.67 47.58 47.44 47.72 48.33 45.73 44.84 45.69 47.26 48.83 50.31 51.20 62.96 63.60 63.65 63.49 63.67 63.92 64.25 64.14 64.25 62.66 61.95 60.28 56.17 56.80 56.07 56.54 55.21 52.22 51.04
38.03 42.22 46.56 44.45 43.14 42.69 42.82 41.22 41.45 41.61 44.49 45.32 43.43 42.67 43.26 47.02 48.59 45.98 45.41 45.11 45.46 45.41 46.22 48.28 50.37 50.94 63.15 63.37 63.23 62.99 63.39 63.74 64.14 64.20 62.50 57.49 55.53 52.93 52.23 52.60 53.41 53.22 54.02 51.65
39.87 44.59 43.04 41.98 40.70 41.95 37.34 43.81 43.41 42.33 40.23 35.73 43.00 34.61 42.55 44.25 42.36 43.06 43.67 43.18 43.24 44.21 46.00 47.26 49.31 50.20 53.90 62.92 63.63 63.28 62.98 63.22 63.79 63.50 61.02 55.88 55.24 52.52 53.59 53.07 53.65 53.14 54.06 51.52
38.76 40.72 40.36 39.52 40.88 43.17 39.86 44.22 43.85 42.60 38.59 36.60 38.62 34.91 40.47 43.12 38.63 39.87 40.37 39.95 40.21 41.36 43.10 44.92 46.97 49.85 51.33 54.21 63.43 62.96 62.23 62.53 62.49 61.73 59.54 56.46 56.25 56.00 53.55 51.69 51.11 52.11 52.16 52.16
40.52 44.41 42.62 41.42 43.74 43.59 44.55 40.47 41.40 39.75 37.66 31.27 36.89 36.62 37.46 35.76 37.99 38.70 39.56 39.73 40.52 41.04 42.33 43.94 45.35 47.72 50.48 52.75 56.95 61.50 61.64 60.97 61.03 59.72 57.47 55.93 56.28 54.80 50.11 49.83 49.73 50.83 51.27 50.35
39.98 40.48 42.75 45.02 39.98 42.36 40.50 35.66 26.68 27.28 28.47 29.07 38.04 35.57 37.37 39.06 40.07 39.33 38.65 38.93 40.13 41.14 41.68 42.79 43.71 44.68 46.47 50.47 53.01 54.69 59.84 58.87 58.92 57.34 56.05 55.01 54.62 52.90 50.48 49.60 49.45 49.48 49.13 48.78
32.66 31.25 40.74 43.86 40.16 37.25 36.23 37.58 29.29 24.85 25.12 28.65 36.80 31.18 37.45 41.66 42.00 41.69 41.40 41.52 42.31 42.22 42.94 43.17 44.75 45.01 46.30 47.12 50.79 53.28 51.98 57.65 57.89 56.31 55.43 54.47 54.18 52.73 51.57 50.71 49.62 49.17 48.75 48.74
31.84 32.62 40.82 41.23 43.11 39.97 36.60 31.73 38.88 32.48 32.70 30.38 31.52 35.13 39.09 41.64 39.61 39.26 39.52 40.19 40.06 41.25 41.68 41.46 45.17 46.97 47.35 47.69 48.40 49.19 51.45 52.25 57.38 56.13 55.19 54.30 53.09 52.02 50.06 50.37 49.82 49.19 48.92 48.76
36.60 29.09 38.03 39.43 41.85 40.00 38.74 39.51 30.71 32.48 23.22 21.51 27.36 30.18 31.17 37.09 37.52 38.82 39.08 40.33 40.97 42.60 41.92 41.68 42.66 45.00 46.26 47.67 48.13 49.34 49.47 50.80 54.61 55.61 54.60 53.72 52.80 51.30 49.91 49.58 48.43 48.45 48.33 47.34
37.11 32.80 32.26 36.37 35.27 34.82 35.29 33.10 33.44 32.51 29.29 22.96 22.05 25.59 36.12 37.41 38.72 37.85 39.94 42.06 42.26 41.76 41.75 40.66 41.20 45.32 47.03 48.30 48.72 48.72 49.35 49.41 49.33 54.28 53.99 53.12 53.10 52.70 49.83 48.82 48.51 47.92 47.15 46.29
39.26 34.51 28.25 31.08 36.49 37.87 34.75 32.00 32.44 22.36 20.03 27.76 26.26 25.54 38.25 36.28 37.37 40.11 42.02 42.72 42.23 40.69 41.44 41.63 40.48 41.68 44.29 46.37 47.77 47.82 47.78 48.77 49.59 49.95 52.38 52.05 52.02 51.80 51.41 49.08 48.23 47.49 46.16 45.72
35.96 29.56 22.44 26.47 29.69 33.70 30.57 32.18 34.08 30.95 26.68 23.71 22.52 25.41 38.77 38.04 38.48 40.65 40.82 42.41 43.41 41.86 40.63 40.50 40.66 40.91 42.05 42.30 44.84 46.85 47.48 47.47 48.88 49.41 51.07 51.99 51.19 50.37 49.48 49.63 48.47 46.95 45.81 45.06
39.16 31.28 26.41 21.46 25.54 29.56 27.67 30.16 31.16 30.72 24.11 23.37 24.71 26.65 31.56 35.74 36.95 39.26 40.41 41.29 41.02 38.95 39.85 39.13 38.69 39.26 40.57 42.21 42.83 43.78 46.07 47.64 48.41 48.55 47.81 49.24 50.28 50.41 50.21 48.51 47.19 46.24 45.56 44.65
34.00 25.00 28.58 30.24 31.36 31.16 29.74 29.10 29.43 27.14 28.12 22.63 26.48 27.91 32.35 34.78 33.58 34.96 36.24 36.99 37.94 38.42 38.83 38.89 39.14 39.45 41.01 41.74 42.87 44.25 46.24 47.12 47.78 47.27 47.10 46.93 49.29 49.91 48.70 46.26 45.57 45.79 45.04 44.45
34.06 22.88 26.31 24.87 29.62 29.56 27.67 29.21 28.25 28.25 28.72 28.64 29.28 28.44 32.59 34.37 35.15 34.83 34.65 36.43 38.06 37.67 38.24 40.06 40.99 41.29 41.18 42.58 43.02 44.01 44.45 45.28 47.72 47.02 46.72 47.14 48.13 48.09 46.56 44.11 43.05 43.14 43.54 43.18
29.11 26.52 25.05 20.65 27.25 26.57 21.34 25.85 27.60 28.92 30.85 29.59 24.39 28.68 32.57 31.62 32.99 33.26 33.19 36.69 36.99 35.78 36.40 36.83 37.42 38.19 40.55 41.80 43.65 42.58 43.66 44.43 45.43 47.71 47.18 46.95 46.89 46.94 44.49 43.10 41.80 41.28 40.24 40.27
25.04 24.81 22.95 18.25 22.04 10.96 24.28 31.16 31.25 28.79 29.97 30.88 30.61 30.54 31.47 31.24 32.31 33.79 35.66 33.28 34.57 35.50 35.54 36.07 36.21 36.95 38.69 41.34 42.41 43.28 44.35 44.13 44.05 45.95 46.25 46.11 46.00 46.44 44.31 42.32 41.01 39.09 38.33 37.86
28.33 23.94 16.33 14.32 16.70 21.34 24.68 27.77 26.57 25.09 24.95 30.23 28.63 30.18 31.92 33.12 33.28 32.12 36.34 36.31 35.47 35.61 35.86 34.97 35.34 36.16 37.04 39.50 42.39 42.94 42.79 43.44 44.77 43.24 41.67 42.03 41.43 43.60 42.30 39.98 38.51 37.71 36.87 36.50
28.85 27.90 22.44 20.13 15.31 12.51 23.59 29.46 32.14 29.56 18.73 29.59 29.98 29.66 30.17 30.74 22.89 27.06 33.58 36.35 36.35 36.57 36.71 36.09 36.50 36.26 37.41 39.12 41.50 41.93 40.71 39.20 38.99 39.64 39.90 38.43 37.06 40.44 40.18 38.46 37.15 37.73 37.11 35.49
20.24 14.90 12.18 14.12 13.87 18.75 27.88 29.82 31.50 18.19 19.61 29.53 30.51 30.38 29.99 27.24 28.64 32.49 34.63 35.42 36.19 36.96 36.67 37.71 36.11 35.54 36.03 37.00 39.48 40.23 38.67 37.45 37.72 37.64 35.71 34.86 34.50 32.08 33.27 34.09 36.44 35.85 35.02 33.94
15.93 13.65 12.27 15.14 5.17 6.68 30.39 28.67 21.95 25.91 30.25 30.40 30.63 30.80 30.47 31.92 33.01 34.18 35.23 35.47 36.16 35.31 35.95 36.57 36.54 34.75 35.22 40.33 40.01 37.84 36.18 36.53 35.55 33.77 33.23 33.23 33.59 33.77 34.50 34.65 33.76 34.50 33.92 32.91
14.98 19.79 17.75 19.28 18.86 27.15 30.27 28.10 30.77 30.91 29.71 30.64 30.74 32.30 31.82 32.14 32.73 34.05 34.36 34.34 35.07 35.69 35.72 36.45 35.06 35.22 39.28 39.06 38.62 36.53 34.10 35.44 33.51 32.96 32.68 32.68 33.05 32.87 33.59 33.41 32.87 32.50 32.68 30.72
24.08 26.11 19.48 21.14 25.12 26.52 28.64 31.19 32.27 32.82 31.82 33.17 33.42 33.28 34.01 33.09 33.61 33.64 34.19 34.35 35.44 35.49 35.35 37.31 35.57 35.74 36.78 36.23 34.48 34.60 35.54 34.02 32.62 32.08 31.66 31.66 31.61 31.63 32.25 32.55 32.84 32.01 29.99 28.84
23.15 24.48 22.88 22.67 26.28 28.37 30.12 31.46 32.37 34.00 35.11 35.11 35.89 35.43 35.19 34.58 34.12 34.40 34.56 35.01 35.66 36.20 37.15 37.12 37.57 37.28 36.33 34.61 34.37 34.80 33.81 33.33 32.04 31.61 31.45 31.45 31.36 31.30 31.18 31.37 31.53 30.54 31.12 30.55
25.16 23.71 20.76 20.51 28.17 27.81 29.22 33.93 35.64 34.49 34.65 36.10 36.05 35.52 36.47 36.32 35.28 35.87 35.41 36.29 36.08 36.26 37.68 38.60 38.98 37.71 34.53 34.22 34.62 33.26 34.17 33.03 31.59 30.79 30.83 30.76 30.15 29.79 29.80 29.40 29.19 31.91 31.40 31.88